HIBER-4 (47541 NORAD) Tracking and Keplerian Element Data

This shows tracking and keplerian element data for the satellite.

Feedback or suggestion? Click here.




ElementValue
Catalog47541
NameHIBER-4
Epoch Orbit1256
Epoch Day105.70461019
Epoch Year2021
RAAN167.9885
Inclination97.4924
Eccentricity0.0010401
Argument of Perigee323.9344
Mean Anonmoly36.1184
Mean Motion15.12679937
Decay Rate1.103E-05
L11 47541U 21006EB 21105.70461019 .00001103 00000-0 66686-4 0 9998
L22 47541 97.4924 167.9885 0010401 323.9344 36.1184 15.12679937 12563

Live tracking and technical data element details for HIBER-4 (NORAD 47541). HIBER-4 can be tracked NOW for your location showing map with azimuth and elevation plus other details from your city location.

Track the satellite on the map from your city or location and see movement details for azimuth, elevation, latitude, longitude, range, height, and movement on the map or in text.







IsCatalogInMostPopularTable: catalog: 47541, numindb: 17
Update: records affected: 1



GetName: 47541 HIBER-4

Hit Count: updated at: Fri, 16 Apr 2021 10:12:03 GMT